Вернуться в каталог

STARLINK-5458

АктивенСвязьVLEO
NORAD 54764·PAYLOAD·🇺🇸 United States

Запущен Dec 17, 2022 с Cape Canaveral Space Force Station

Loading…

Ближайшие Пролёты (ближайшие 24 часа)

TLE

СвежийSource: CelesTrak SupGP

Эпоха: Sep 15, 2026, 02:05 UTC

1 54764C 22175G   26258.08729167 -.00011110  00000+0 -32823-3 0  2580
2 54764  53.1574 263.0303 0001347  91.8040  46.9249 15.34398866    15

Отслеживайте STARLINK-5458 в реальном времени с AllMySat

Download on the App Store